THOR ABLESTAR DEB, 131

Orbit data source: Space-Track

THOR ABLESTAR DEB, 131 is space debris in LEO originally from a launch on Thu, 29 Jun 1961 UTC launched from the Air Force Eastern Test Range (AFETR). Debris objects in space refer to the collection of defunct objects orbiting the Earth. Examples of debris include non-operational satellites, rocket bodies, and fragments generated from explosions, collisions, or faulty payload assembly.

Loading next visibility...
Identifier
131, 1961-015R
Orbit
LEO
Country
Flag of USUS
Related business
Manufacturer
Unknown
Mission
Spacecraft
Bus & Motor
Unknown
Mass
Unknown
Launch date (UTC)
1961-06-29 (64 years ago)
Launch vehicle
Unknown
Launch site
Air Force Eastern Test Range (AFETR)
Object type
Payload
Rocket body
Debris
Shape & HBR
Unknown shape, 0.2 m
Radar Cross Section
Medium (>0.1 m² and <1 m²)

Expand to show TLE details & history
Last TLE update: 7 hours ago

TLE from 7 hours ago
0 THOR ABLESTAR DEB
1   131U 61015R   25299.43292971  .00000199  00000-0  17743-3 0  9996
2   131  66.7355 326.3592 0086405 235.0798 124.2146 14.01674018270704
Epoch: 2025-10-26T10:23Z
TLE epoch observation values (Epoch: 2025-10-26T10:23:25.126Z)
Latitude
-0.00004°
Longitude
135.45529°
Altitude
925.76 km
Speed
7.371 km/s
True Right ascension
21h 45m 26s
True Declination
0° 00' 00"
Sunlit
Object was in daylight at epoch
Visualization orbit readout
Latitude
Unknown
Longitude
Unknown
Altitude
Unknown
Speed
Unknown
Apparent Right ascension
Unknown
Apparent Declination
Unknown
Sunlit
N/A
Visualization observer readout
Local Sidereal Time
13:08:32
Azimuth
Unknown
Elevation
Unknown
Doppler factor
Unknown
Orbital elements
Apogee altitude
949.166 km
Perigee altitude
823.627 km
Semi-major axis
7,264.533 km
Eccentricity
0.00864
Inclination
66.7355°
RAAN
326.3592°
Arg. of periapsis
235.0798°
True anomaly
125.0284°
Mean anomaly
124.2146°
Eccentric anomaly
124.622°
Mean motion
3.50535 °/min
Orbital period
102.7 mins
BSTAR
0.00017743
Loading maneuver chart data...
Computing Atmospheric mass density...

Documentation

Showing up to 5 results
|